Location: Bothell
(47.7630°N, 122.2040°W)
Time: 08:00:29
(UTC-07:00)

Amateur Radio Satellites - All Passes

Search period start: 25 August 2016 07:30
Search period end: 26 August 2016 07:30
Location: Bothell, 47.7630°N, 122.2040°W

Satellite Date Start Highest point End Downlink Frequencies (MHz)
Time Altitude Azimuth
CINEMA 3 25 Aug 07:34:39 07:35:13 10° 84° (E) 07:35:46 145.822/145.860
Cosmos 2491 25 Aug 07:42:52 07:50:23 33° 278° (W) 07:57:55 435.465 / 435.565
GOMX 1 25 Aug 07:46:06 07:51:38 86° 282° (WNW) 07:56:57 467.674
PRISM 25 Aug 07:51:05 07:54:00 19° 62° (ENE) 07:56:56 437.425
BRITE-PL 25 Aug 07:55:41 08:00:57 41° 293° (WNW) 08:06:13 437.365/2234.400
AO-85 25 Aug 07:58:05 08:03:05 45° 315° (NW) 08:07:47 145.980
HO-68 25 Aug 08:03:54 08:09:33 24° 91° (E) 08:15:09 435.675
DOVE 4 25 Aug 08:07:11 08:12:24 74° 102° (ESE) 08:17:19 437.250
Cubesat XI-IV 25 Aug 08:13:45 08:18:59 58° 290° (WNW) 08:24:10 437.490
CUTE-I 25 Aug 08:26:40 08:31:43 45° 293° (WNW) 08:36:45 437.470
NOAA 15 25 Aug 08:37:28 08:42:06 31° 297° (WNW) 08:46:42 137.62
NOAA 18 25 Aug 08:43:08 08:48:14 40° 295° (WNW) 08:53:18 137.9125
STRAND 1 25 Aug 08:43:57 08:47:53 22° 268° (W) 08:51:52 437.568
AO-7 25 Aug 08:44:33 08:47:06 12° 330° (NNW) 08:49:39 29.400- 29.500
SEEDS 25 Aug 08:48:23 08:52:06 30° 95° (E) 08:55:49 437.485
LilacSat-2 25 Aug 08:57:23 08:59:18 14° 299° (WNW) 09:01:13 437.200
TIGRISAT 25 Aug 08:59:05 09:01:03 13° 57° (ENE) 09:03:00 435.000
YUBILEINY 25 Aug 09:02:39 09:10:21 33° 296° (WNW) 09:18:07 435.215
Cosmos 2504 25 Aug 09:03:27 09:11:52 66° 283° (WNW) 09:19:45 435.465 / 435.565
CANX-2 25 Aug 09:03:53 09:08:07 69° 102° (ESE) 09:12:21 2200.000
SO-50 25 Aug 09:07:58 09:12:39 80° 52° (NE) 09:17:10 436.795
CINEMA 3 25 Aug 09:08:29 09:13:10 86° 101° (E) 09:17:36 145.822/145.860
CUTE 1.7 + AOD 2 25 Aug 09:10:33 09:14:48 71° 102° (ESE) 09:19:01 437.475
RS-15 25 Aug 09:13:35 09:25:25 48° 31° (NNE) 09:37:15 29.354- 29.394
UNISAT 6 25 Aug 09:24:55 09:28:27 22° 63° (ENE) 09:31:57 437.425
PRISM 25 Aug 09:25:02 09:28:59 47° 260° (W) 09:32:59 437.425
GOMX 1 25 Aug 09:25:36 09:28:52 16° 304° (NW) 09:32:06 467.674
AAUSAT CUBESAT 2 25 Aug 09:27:22 09:31:22 42° 98° (E) 09:35:20 437.432
AIST 1 25 Aug 09:30:59 09:34:43 29° 89° (E) 09:38:29
COMPASS 1 25 Aug 09:32:34 09:36:43 61° 101° (E) 09:40:51 437.405
ISS 25 Aug 09:36:35 09:38:05 13° 134° (SE) 09:39:34 145.825
AO-85 25 Aug 09:41:54 09:44:42 15° 337° (NNW) 09:47:24 145.980
CUBEBUG 2 25 Aug 09:44:59 09:49:16 61° 101° (E) 09:53:24 437.445
Oscar 11 25 Aug 09:45:50 09:49:35 28° 95° (E) 09:53:19 145.826/435.025
DOVE 4 25 Aug 09:45:58 09:49:27 19° 302° (WNW) 09:52:51 437.250
UWE-3 25 Aug 09:48:31 09:52:35 44° 98° (E) 09:56:34 435.000/436.395/437.385
FUNcube-1 25 Aug 09:49:38 09:53:15 28° 95° (E) 09:56:48 145.935
HO-68 25 Aug 09:50:47 09:57:58 75° 291° (WNW) 10:05:05 435.675
DELFI C3 25 Aug 09:55:24 09:57:46 15° 90° (E) 10:00:09 145.870
Cubesat XI-IV 25 Aug 09:56:44 09:57:59 11° 310° (NW) 09:59:12 437.490
ANTELSAT 25 Aug 10:00:57 10:05:21 46° 70° (ENE) 10:09:41 437.575/2403.000
CUSAT 1 25 Aug 10:05:01 10:10:18 34° 70° (ENE) 10:16:43 437.405
BEESAT 3 25 Aug 10:05:50 10:08:04 15° 111° (ESE) 10:10:18 437.485
ZACube-1 25 Aug 10:09:16 10:13:21 47° 99° (E) 10:17:20 437.345
SEEDS 25 Aug 10:24:08 10:27:46 29° 293° (WNW) 10:31:24 437.485
QB50P1 25 Aug 10:32:19 10:35:06 17° 61° (ENE) 10:37:52 145.935-145.965
TIGRISAT 25 Aug 10:32:27 10:37:04 86° 76° (ENE) 10:41:38 435.000
DANDE 25 Aug 10:36:44 10:40:30 22° 70° (ENE) 10:45:04 436.750
CANX-2 25 Aug 10:41:08 10:43:28 15° 300° (WNW) 10:45:48 2200.000
POPSAT HIP 1 25 Aug 10:41:37 10:44:46 20° 63° (ENE) 10:47:55 437.405
CINEMA 3 25 Aug 10:47:17 10:49:35 14° 303° (WNW) 10:51:51 145.822/145.860
CUTE 1.7 + AOD 2 25 Aug 10:47:50 10:50:07 14° 300° (WNW) 10:52:23 437.475
SO-50 25 Aug 10:49:51 10:52:29 15° 250° (WSW) 10:55:03 436.795
UNISAT 6 25 Aug 11:00:25 11:04:53 48° 261° (W) 11:09:19 437.425
Cosmos 2504 25 Aug 11:02:10 11:06:53 16° 306° (NW) 11:11:28 435.465 / 435.565
AAUSAT CUBESAT 2 25 Aug 11:03:28 11:06:36 21° 296° (WNW) 11:09:43 437.432
AIST 1 25 Aug 11:08:25 11:12:15 30° 288° (WNW) 11:16:08
COMPASS 1 25 Aug 11:09:18 11:11:50 16° 299° (WNW) 11:14:22 437.405
QB50P2 25 Aug 11:10:17 11:14:17 39° 69° (ENE) 11:18:17 145.880/145.840
ISS 25 Aug 11:10:46 11:14:02 67° 152° (SSE) 11:17:18 145.825
DUCHIFAT 1 25 Aug 11:11:40 11:15:31 34° 68° (ENE) 11:19:23 145.980
POLYITAN 1 25 Aug 11:12:48 11:16:49 40° 69° (ENE) 11:20:50 437.675
JAS-2 25 Aug 11:15:42 11:19:57 26° 60° (ENE) 11:24:27 435.910
BEESAT 2 25 Aug 11:17:59 11:21:42 40° 120° (ESE) 11:25:27 435.950
ESTCUBE 1 25 Aug 11:18:46 11:20:14 11° 87° (E) 11:21:41 437.505/2401.250
HUMSAT D 25 Aug 11:19:01 11:23:04 57° 101° (E) 11:27:04 437.325/437.525
GONETS M04 25 Aug 11:21:36 11:28:05 24° 77° (ENE) 11:34:35
Oscar 11 25 Aug 11:21:54 11:25:44 32° 293° (WNW) 11:29:33 145.826/435.025
CUBEBUG 2 25 Aug 11:22:45 11:25:25 16° 300° (WNW) 11:28:04 437.445
NANOSAT C BR1 25 Aug 11:23:51 11:27:57 48° 70° (ENE) 11:32:04 145.865
UWE-3 25 Aug 11:25:38 11:28:46 20° 297° (WNW) 11:31:52 435.000/436.395/437.385
FUNcube-1 25 Aug 11:25:50 11:29:30 30° 293° (WNW) 11:33:06 145.935
RS-15 25 Aug 11:26:42 11:39:03 77° 238° (WSW) 11:51:13 29.354- 29.394
DELFI C3 25 Aug 11:29:02 11:32:57 53° 288° (WNW) 11:36:50 145.870
PCSat 25 Aug 11:37:52 11:39:59 12° 102° (ESE) 11:42:06 145.827
ANTELSAT 25 Aug 11:38:39 11:42:15 22° 267° (W) 11:45:50 437.575/2403.000
HO-68 25 Aug 11:39:50 11:44:36 19° 312° (NW) 11:49:21 435.675
BEESAT 3 25 Aug 11:41:21 11:45:14 66° 310° (NW) 11:49:12 437.485
ZACube-1 25 Aug 11:46:20 11:49:19 19° 298° (WNW) 11:52:16 437.345
CUSAT 1 25 Aug 11:46:42 11:52:25 51° 264° (W) 11:59:28 437.405
AUBIESAT-1 25 Aug 11:52:52 11:56:21 25° 99° (E) 11:59:38 437.475
M-CUBED/EXP-1 PRIME 25 Aug 11:55:59 11:59:53 33° 101° (E) 12:03:30 437.505
QB50P1 25 Aug 12:06:13 12:10:26 59° 259° (WSW) 12:14:42 145.935-145.965
TIGRISAT 25 Aug 12:12:40 12:14:21 12° 273° (W) 12:16:02 435.000
POPSAT HIP 1 25 Aug 12:16:06 12:20:14 48° 261° (W) 12:24:25 437.405
Gurwin Techsat 1B 25 Aug 12:16:15 12:17:31 11° 50° (NE) 12:18:48 435.225
Cosmos 2499 25 Aug 12:16:50 12:24:07 38° 87° (E) 12:30:57 435.465 / 435.565
BUGSAT 1 25 Aug 12:17:19 12:21:34 74° 74° (ENE) 12:25:50 437.445
DANDE 25 Aug 12:18:35 12:23:22 60° 261° (W) 12:29:42 436.750
AO-7 25 Aug 12:23:31 12:24:38 10° 27° (NNE) 12:25:45 29.400- 29.500
VELOX 1 25 Aug 12:23:53 12:27:43 27° 95° (E) 12:31:31 145.980
CUBEBUG 1 25 Aug 12:32:36 12:36:49 40° 98° (E) 12:40:59 437.445
QB50P2 25 Aug 12:46:49 12:50:13 23° 267° (W) 12:53:39 145.880/145.840
ISS 25 Aug 12:47:28 12:50:38 44° 351° (N) 12:53:49 145.825
DUCHIFAT 1 25 Aug 12:47:41 12:51:17 26° 266° (W) 12:54:52 145.980
POLYITAN 1 25 Aug 12:49:21 12:52:45 23° 267° (W) 12:56:10 437.675
DX 1 25 Aug 12:49:55 12:53:56 33° 97° (E) 12:57:54 434.975-435.025
ESTCUBE 1 25 Aug 12:53:07 12:57:41 87° 283° (WNW) 13:02:14 437.505/2401.250
HUMSAT D 25 Aug 12:55:46 12:58:16 16° 299° (WNW) 13:00:45 437.325/437.525
BEESAT 2 25 Aug 12:56:11 12:59:38 28° 320° (NW) 13:03:09 435.950
JAS-2 25 Aug 12:59:45 13:04:46 50° 261° (W) 13:10:08 435.910
NANOSAT C BR1 25 Aug 13:00:55 13:03:57 19° 268° (W) 13:06:59 145.865
Oscar 19 25 Aug 13:01:28 13:06:21 45° 68° (ENE) 13:11:17 437.125/150
SPROUT 25 Aug 13:02:27 13:06:25 35° 97° (E) 13:10:20 437.525
50 SAT 25 Aug 13:02:53 13:06:31 72° 102° (ESE) 13:10:09 437.505
AO-85 25 Aug 13:06:40 13:09:38 17° 27° (NNE) 13:12:28 145.980
AIST 2 25 Aug 13:07:50 13:11:18 27° 116° (ESE) 13:14:47 435.215
AISAT 25 Aug 13:12:10 13:16:41 85° 101° (ESE) 13:21:09 437.250
GONETS M04 25 Aug 13:15:01 13:23:48 84° 280° (W) 13:32:42
PCSat 25 Aug 13:17:02 13:22:27 76° 121° (ESE) 13:27:53 145.827
BEESAT 3 25 Aug 13:21:28 13:23:40 14° 331° (NNW) 13:25:53 437.485
AUBIESAT-1 25 Aug 13:27:02 13:30:55 35° 299° (WNW) 13:34:30 437.475
M-CUBED/EXP-1 PRIME 25 Aug 13:30:36 13:34:18 28° 301° (WNW) 13:37:47 437.505
TISAT 1 25 Aug 13:31:42 13:34:28 17° 91° (E) 13:37:13 437.305
UKube-1 25 Aug 13:35:07 13:39:29 76° 102° (ESE) 13:43:50 .
RS-15 25 Aug 13:40:51 13:49:29 23° 262° (W) 13:58:02 29.354- 29.394
Gurwin Techsat 1B 25 Aug 13:51:12 13:56:24 58° 70° (ENE) 14:01:38 435.225
BUGSAT 1 25 Aug 13:55:37 13:57:27 12° 272° (W) 13:59:17 437.445
VELOX 1 25 Aug 14:00:09 14:04:14 36° 293° (WNW) 14:08:19 145.980
AO-7 25 Aug 14:07:44 14:14:48 32° 51° (NE) 14:21:51 29.400- 29.500
Cosmos 2499 25 Aug 14:09:10 14:17:04 51° 286° (WNW) 14:24:25 435.465 / 435.565
CUBEBUG 1 25 Aug 14:09:17 14:12:54 25° 296° (WNW) 14:16:30 437.445
ITAMSAT 1 25 Aug 14:10:35 14:15:04 31° 63° (ENE) 14:19:34 435.822/435.867
ISS 25 Aug 14:24:16 14:27:29 47° 11° (NNE) 14:30:41 145.825
DX 1 25 Aug 14:26:15 14:30:02 29° 295° (WNW) 14:33:48 434.975-435.025
ITUPSAT 1 25 Aug 14:29:53 14:32:33 15° 89° (E) 14:35:13 437.325
ESTCUBE 1 25 Aug 14:31:49 14:33:47 13° 303° (WNW) 14:35:46 437.505/2401.250
50 SAT 25 Aug 14:38:29 14:39:35 11° 300° (WNW) 14:40:40 437.505
SPROUT 25 Aug 14:38:39 14:42:14 26° 295° (WNW) 14:45:47 437.525
Oscar 19 25 Aug 14:41:27 14:45:51 28° 266° (W) 14:50:17 437.125/150
AIST 2 25 Aug 14:45:43 14:49:37 41° 315° (NW) 14:53:35 435.215
AO-85 25 Aug 14:46:33 14:50:57 71° 50° (NE) 14:54:59 145.980
AISAT 25 Aug 14:50:17 14:52:31 14° 303° (WNW) 14:54:44 437.250
O/OREOS (USA 219) 25 Aug 14:55:16 14:59:39 56° 110° (ESE) 15:04:06 437.305
PCSat 25 Aug 15:01:56 15:06:25 26° 322° (NW) 15:10:56 145.827
SWISSCUBE 25 Aug 15:03:10 15:07:29 33° 96° (E) 15:11:46 437.505
TISAT 1 25 Aug 15:06:20 15:10:26 52° 289° (WNW) 15:14:31 437.305
UKube-1 25 Aug 15:12:38 15:14:59 14° 302° (WNW) 15:17:19 .
GONETS M04 25 Aug 15:15:38 15:22:07 22° 304° (WNW) 15:28:42
BEESAT 25 Aug 15:20:26 15:25:00 43° 99° (E) 15:29:32 436.000
Gurwin Techsat 1B 25 Aug 15:32:40 15:36:45 22° 269° (W) 15:40:51 435.225
ITAMSAT 1 25 Aug 15:49:30 15:54:24 42° 262° (W) 15:59:20 435.822/435.867
MOZHAYETS 4 25 Aug 15:56:23 15:59:24 17° 90° (E) 16:02:25
AO-7 25 Aug 15:58:33 16:06:55 76° 253° (WSW) 16:15:19 29.400- 29.500
ISS 25 Aug 16:00:48 16:04:01 53° 210° (SSW) 16:07:13 145.825
ITUPSAT 1 25 Aug 16:06:10 16:10:56 74° 287° (WNW) 16:15:42 437.325
KKS-1 25 Aug 16:08:25 16:11:21 17° 91° (E) 16:14:14 437.445
Cosmos 2499 25 Aug 16:09:54 16:12:12 11° 310° (NW) 16:14:29 435.465 / 435.565
AIST 2 25 Aug 16:27:40 16:29:12 12° 337° (NNW) 16:30:46 435.215
AO-85 25 Aug 16:28:25 16:30:45 15° 251° (WSW) 16:32:59 145.980
HORYU 2 25 Aug 16:31:28 16:35:30 34° 67° (ENE) 16:39:32 437.375
O/OREOS (USA 219) 25 Aug 16:35:56 16:39:25 22° 311° (NW) 16:42:57 437.305
CUTE-I 25 Aug 16:36:13 16:38:06 12° 51° (NE) 16:40:00 437.470
SWISSCUBE 25 Aug 16:41:00 16:45:15 33° 295° (WNW) 16:49:30 437.505
NOAA 15 25 Aug 16:43:46 16:47:00 17° 55° (NE) 16:50:16 137.62
STARS 25 Aug 16:50:33 16:54:01 22° 93° (E) 16:57:27 437.465
PCSat 25 Aug 16:50:35 16:51:51 11° 347° (NNW) 16:53:08 145.827
NOAA 18 25 Aug 16:54:21 16:57:45 17° 54° (NE) 17:01:08 137.9125
BEESAT 25 Aug 16:58:40 17:02:35 26° 297° (WNW) 17:06:30 436.000
Cosmos 2491 25 Aug 17:00:01 17:03:57 14° 70° (ENE) 17:07:53 435.465 / 435.565
Cosmos 2504 25 Aug 17:01:26 17:03:56 12° 49° (NE) 17:06:24 435.465 / 435.565
YUBILEINY 25 Aug 17:10:11 17:18:24 41° 68° (ENE) 17:26:29 435.215
CUBESAT XI-V 25 Aug 17:10:20 17:12:46 14° 88° (E) 17:15:12 437.345
GOMX 1 25 Aug 17:20:26 17:24:25 23° 60° (ENE) 17:28:33 467.674
BRITE-PL 25 Aug 17:31:14 17:35:55 50° 70° (ENE) 17:41:01 437.365/2234.400
MOZHAYETS 4 25 Aug 17:32:27 17:36:58 59° 288° (WNW) 17:41:27
DOVE 4 25 Aug 17:39:45 17:43:11 18° 58° (ENE) 17:46:39 437.250
KKS-1 25 Aug 17:43:53 17:48:18 58° 289° (WNW) 17:52:40 437.445
ITUPSAT 1 25 Aug 17:46:15 17:47:57 12° 306° (NW) 17:49:39 437.325
BEESAT 2 25 Aug 17:55:39 17:58:11 16° 31° (NNE) 18:00:41 435.950
AO-7 25 Aug 17:55:58 18:01:05 17° 273° (W) 18:06:14 29.400- 29.500
Cubesat XI-IV 25 Aug 17:59:24 18:04:33 50° 68° (ENE) 18:09:42 437.490
LilacSat-2 25 Aug 18:06:37 18:10:19 47° 72° (ENE) 18:14:02 437.200
HORYU 2 25 Aug 18:08:12 18:12:05 29° 264° (W) 18:15:58 437.375
CUTE-I 25 Aug 18:11:53 18:17:09 64° 71° (ENE) 18:22:26 437.470
BEESAT 3 25 Aug 18:18:06 18:21:40 31° 42° (NE) 18:25:14 437.485
NOAA 15 25 Aug 18:20:50 18:26:04 87° 245° (WSW) 18:31:25 137.62
STARS 25 Aug 18:26:23 18:30:34 42° 291° (WNW) 18:34:42 437.465
NOAA 18 25 Aug 18:32:05 18:37:39 86° 72° (ENE) 18:43:13 137.9125
PCSat 25 Aug 18:36:20 18:37:56 11° 15° (NNE) 18:39:34 145.827
HO-68 25 Aug 18:36:30 18:42:23 28° 55° (NE) 18:48:18 435.675
CINEMA 3 25 Aug 18:37:31 18:40:51 18° 60° (ENE) 18:44:09 145.822/145.860
CUBESAT XI-V 25 Aug 18:46:00 18:50:43 77° 285° (WNW) 18:55:25 437.345
Cosmos 2491 25 Aug 18:50:22 18:58:56 65° 92° (E) 19:07:34 435.465 / 435.565
Cosmos 2504 25 Aug 18:52:09 18:59:22 56° 75° (ENE) 19:06:22 435.465 / 435.565
GOMX 1 25 Aug 18:57:01 19:02:00 61° 260° (W) 19:07:21 467.674
YUBILEINY 25 Aug 19:07:02 19:15:28 53° 271° (W) 19:23:49 435.215
BRITE-PL 25 Aug 19:10:52 19:14:44 23° 270° (W) 19:18:53 437.365/2234.400
STRAND 1 25 Aug 19:11:58 19:14:34 14° 88° (E) 19:17:10 437.568
CUBEBUG 2 25 Aug 19:12:49 19:14:23 12° 57° (ENE) 19:15:56 437.445
DOVE 4 25 Aug 19:15:00 19:20:11 82° 258° (WSW) 19:25:32 437.250
BEESAT 2 25 Aug 19:32:38 19:36:41 77° 53° (NE) 19:40:41 435.950
AIST 1 25 Aug 19:35:34 19:37:15 12° 62° (ENE) 19:38:55
Cubesat XI-IV 25 Aug 19:40:28 19:44:53 26° 267° (W) 19:49:19 437.490
LilacSat-2 25 Aug 19:42:31 19:44:53 16° 269° (W) 19:47:16 437.200
SEEDS 25 Aug 19:43:16 19:46:58 32° 68° (ENE) 19:50:41 437.485
AIST 2 25 Aug 19:47:51 19:50:02 14° 26° (NNE) 19:52:14 435.215
CUTE-I 25 Aug 19:53:46 19:57:40 20° 269° (W) 20:01:34 437.470
BEESAT 3 25 Aug 19:55:44 19:59:23 35° 241° (WSW) 20:03:01 437.485
CANX-2 25 Aug 19:59:36 20:03:47 75° 75° (ENE) 20:08:00 2200.000
NOAA 15 25 Aug 20:04:15 20:06:39 13° 273° (W) 20:09:04 137.62
CUTE 1.7 + AOD 2 25 Aug 20:06:10 20:10:21 76° 76° (ENE) 20:14:34 437.475
CINEMA 3 25 Aug 20:12:24 20:17:25 75° 258° (WSW) 20:22:26 145.822/145.860
NOAA 18 25 Aug 20:15:50 20:19:01 15° 272° (W) 20:22:13 137.9125
PCSat 25 Aug 20:18:38 20:23:17 28° 40° (NE) 20:27:55 145.827
AAUSAT CUBESAT 2 25 Aug 20:20:39 20:24:33 43° 70° (ENE) 20:28:28 437.432
HO-68 25 Aug 20:22:20 20:29:32 73° 255° (WSW) 20:36:46 435.675
CUBESAT XI-V 25 Aug 20:25:38 20:27:18 12° 304° (NW) 20:28:58 437.345
COMPASS 1 25 Aug 20:26:16 20:30:20 63° 74° (ENE) 20:34:26 437.405
Oscar 11 25 Aug 20:43:40 20:47:33 33° 68° (ENE) 20:51:26 145.826/435.025
DELFI C3 25 Aug 20:44:58 20:47:14 15° 61° (ENE) 20:49:32 145.870
CUBEBUG 2 25 Aug 20:45:34 20:50:16 77° 75° (ENE) 20:54:52 437.445
Cosmos 2504 25 Aug 20:46:10 20:52:19 30° 277° (W) 20:58:21 435.465 / 435.565
FUNcube-1 25 Aug 20:47:57 20:51:59 35° 69° (ENE) 20:55:58 145.935
UWE-3 25 Aug 20:48:06 20:52:35 57° 73° (ENE) 20:57:00 435.000/436.395/437.385
Cosmos 2491 25 Aug 20:48:42 20:56:24 34° 295° (WNW) 21:04:12 435.465 / 435.565
STRAND 1 25 Aug 20:49:18 20:54:26 85° 283° (WNW) 20:59:32 437.568
DOVE 4 25 Aug 20:56:35 20:58:42 12° 276° (W) 21:00:51 437.250
PRISM 25 Aug 21:03:44 21:06:39 18° 92° (E) 21:09:33 437.425
ZACube-1 25 Aug 21:07:46 21:12:10 58° 72° (ENE) 21:16:29 437.345
YUBILEINY 25 Aug 21:08:40 21:10:03 10° 293° (WNW) 21:11:25 435.215
AUBIESAT-1 25 Aug 21:10:24 21:11:30 11° 48° (NE) 21:12:36 437.475
AIST 1 25 Aug 21:11:05 21:15:31 85° 265° (W) 21:19:56
BEESAT 2 25 Aug 21:12:02 21:13:57 13° 250° (WSW) 21:15:50 435.950
M-CUBED/EXP-1 PRIME 25 Aug 21:12:47 21:15:06 14° 50° (NE) 21:17:24 437.505
SEEDS 25 Aug 21:19:10 21:22:42 26° 266° (W) 21:26:15 437.485
AIST 2 25 Aug 21:25:19 21:29:26 54° 48° (NE) 21:33:33 435.215
GONETS M04 25 Aug 21:25:53 21:30:46 15° 49° (NE) 21:35:37
CANX-2 25 Aug 21:38:35 21:40:11 12° 273° (W) 21:41:46 2200.000
CUTE 1.7 + AOD 2 25 Aug 21:45:16 21:46:44 12° 273° (W) 21:48:12 437.475
CINEMA 3 25 Aug 21:54:34 21:55:22 10° 276° (W) 21:56:09 145.822/145.860
AAUSAT CUBESAT 2 25 Aug 21:57:17 22:00:15 19° 268° (W) 22:03:14 437.432
PCSat 25 Aug 22:01:45 22:07:09 67° 241° (WSW) 22:12:30 145.827
COMPASS 1 25 Aug 22:04:13 22:06:20 14° 271° (W) 22:08:27 437.405
Cosmos 2499 25 Aug 22:04:24 22:08:12 15° 54° (NE) 22:11:59 435.465 / 435.565
HUMSAT D 25 Aug 22:13:09 22:17:16 62° 73° (ENE) 22:21:22 437.325/437.525
HO-68 25 Aug 22:14:45 22:18:30 15° 275° (W) 22:22:15 435.675
DELFI C3 25 Aug 22:17:47 22:21:39 58° 259° (W) 22:25:34 145.870
Oscar 11 25 Aug 22:20:03 22:23:43 27° 266° (W) 22:27:25 145.826/435.025
ESTCUBE 1 25 Aug 22:20:57 22:23:51 17° 60° (ENE) 22:26:46 437.505/2401.250
TIGRISAT 25 Aug 22:22:18 22:24:23 13° 88° (E) 22:26:29 435.000
FUNcube-1 25 Aug 22:24:30 22:28:17 27° 266° (W) 22:32:01 145.935
CUBEBUG 2 25 Aug 22:25:00 22:27:24 14° 272° (W) 22:29:45 437.445
UWE-3 25 Aug 22:26:16 22:29:23 18° 269° (W) 22:32:27 435.000/436.395/437.385
STRAND 1 25 Aug 22:30:07 22:32:52 15° 305° (NW) 22:35:36 437.568
PRISM 25 Aug 22:38:11 22:42:13 48° 290° (WNW) 22:46:15 437.425
AISAT 25 Aug 22:38:22 22:41:01 16° 59° (ENE) 22:43:39 437.250
AUBIESAT-1 25 Aug 22:40:30 22:45:03 59° 67° (ENE) 22:49:38 437.475
M-CUBED/EXP-1 PRIME 25 Aug 22:44:10 22:48:50 76° 69° (ENE) 22:53:34 437.505
ZACube-1 25 Aug 22:45:57 22:48:48 17° 270° (W) 22:51:38 437.345
UNISAT 6 25 Aug 22:49:02 22:52:41 26° 94° (E) 22:56:16 437.425
UKube-1 25 Aug 22:59:26 23:01:30 13° 57° (ENE) 23:03:33 .
AIST 2 25 Aug 23:04:29 23:07:36 20° 246° (WSW) 23:10:41 435.215
CUSAT 1 25 Aug 23:16:27 23:16:56 10° 81° (E) 23:17:26 437.405
GONETS M04 25 Aug 23:21:06 23:29:53 60° 75° (ENE) 23:38:36
O/OREOS (USA 219) 25 Aug 23:22:50 23:26:47 27° 52° (NE) 23:30:43 437.305
VELOX 1 25 Aug 23:24:10 23:28:15 37° 67° (ENE) 23:32:21 145.980
ANTELSAT 25 Aug 23:25:42 23:30:00 61° 101° (ESE) 23:34:12 437.575/2403.000
SO-50 25 Aug 23:28:18 23:29:57 12° 107° (ESE) 23:31:35 436.795
CUBEBUG 1 25 Aug 23:31:30 23:35:45 50° 71° (ENE) 23:40:03 437.445
50 SAT 25 Aug 23:43:06 23:46:36 51° 72° (ENE) 23:50:06 437.505
DX 1 25 Aug 23:48:23 23:52:32 45° 69° (ENE) 23:56:44 434.975-435.025
QB50P1 25 Aug 23:48:27 23:51:18 17° 91° (E) 23:54:08 145.935-145.965
PCSat 25 Aug 23:48:42 23:49:29 10° 259° (W) 23:50:16 145.827
HUMSAT D 25 Aug 23:51:05 23:53:18 14° 271° (W) 23:55:30 437.325/437.525
RS-15 25 Aug 23:52:48 23:55:15 11° 89° (E) 23:57:42 29.354- 29.394
Cosmos 2499 25 Aug 23:55:45 00:02:52 71° 78° (ENE) 00:09:56 435.465 / 435.565
ESTCUBE 1 25 Aug 23:55:45 00:00:12 64° 258° (WSW) 00:04:41 437.505/2401.250
TIGRISAT 25 Aug 23:57:18 00:01:37 68° 286° (WNW) 00:05:49 435.000
POPSAT HIP 1 25 Aug 23:57:57 00:01:13 21° 93° (E) 00:04:26 437.405
SPROUT 25 Aug 23:58:56 00:03:00 41° 69° (ENE) 00:07:04 437.525
JAS-2 26 Aug 00:03:48 00:08:45 21° 90° (E) 00:14:03 435.910
AISAT 26 Aug 00:12:30 00:16:56 73° 257° (WSW) 00:21:26 437.250
AUBIESAT-1 26 Aug 00:16:30 00:19:49 19° 264° (W) 00:23:09 437.475
M-CUBED/EXP-1 PRIME 26 Aug 00:21:05 00:23:49 15° 266° (W) 00:26:36 437.505
UNISAT 6 26 Aug 00:25:33 00:29:29 34° 292° (WNW) 00:33:19 437.425
TISAT 1 26 Aug 00:26:26 00:29:38 21° 63° (ENE) 00:32:50 437.305
QB50P2 26 Aug 00:27:15 00:31:21 45° 99° (E) 00:35:23 145.880/145.840
DUCHIFAT 1 26 Aug 00:27:39 00:31:36 37° 97° (E) 00:35:30 145.980
POLYITAN 1 26 Aug 00:29:48 00:33:53 45° 99° (E) 00:37:54 437.675
UKube-1 26 Aug 00:32:35 00:36:55 84° 256° (WSW) 00:41:17 .
NANOSAT C BR1 26 Aug 00:40:19 00:44:29 55° 101° (E) 00:48:36 145.865
CUSAT 1 26 Aug 00:55:28 00:58:14 37° 289° (WNW) 01:01:39 437.405
BEESAT 26 Aug 00:56:03 00:57:42 12° 54° (NE) 00:59:20 436.000
VELOX 1 26 Aug 01:01:03 01:04:47 26° 266° (W) 01:08:34 145.980
O/OREOS (USA 219) 26 Aug 01:02:00 01:06:20 42° 252° (WSW) 01:10:40 437.305
ANTELSAT 26 Aug 01:03:32 01:06:16 17° 300° (WNW) 01:08:57 437.575/2403.000
SO-50 26 Aug 01:04:47 01:09:38 76° 125° (SE) 01:14:27 436.795
CUBEBUG 1 26 Aug 01:09:11 01:12:19 19° 269° (W) 01:15:30 437.445
Oscar 19 26 Aug 01:11:38 01:13:27 12° 86° (E) 01:15:15 437.125/150
GONETS M04 26 Aug 01:18:31 01:26:17 36° 277° (W) 01:34:01
50 SAT 26 Aug 01:18:50 01:20:29 13° 270° (W) 01:22:09 437.505
QB50P1 26 Aug 01:23:16 01:27:23 50° 289° (WNW) 01:31:27 145.935-145.965
DX 1 26 Aug 01:25:37 01:28:57 21° 267° (W) 01:32:18 434.975-435.025
BUGSAT 1 26 Aug 01:31:06 01:35:18 79° 103° (ESE) 01:39:24 437.445
POPSAT HIP 1 26 Aug 01:33:11 01:37:10 41° 291° (WNW) 01:41:07 437.405
DANDE 26 Aug 01:33:52 01:36:20 40° 286° (WNW) 01:39:01 436.750
SPROUT 26 Aug 01:35:44 01:39:06 22° 267° (W) 01:42:30 437.525
ITUPSAT 1 26 Aug 01:39:23 01:43:19 26° 63° (ENE) 01:47:16 437.325
JAS-2 26 Aug 01:47:47 01:54:22 84° 286° (WNW) 02:01:45 435.910
Cosmos 2499 26 Aug 01:49:58 01:55:14 23° 279° (W) 02:00:30 435.465 / 435.565
RS-15 26 Aug 01:53:25 02:04:23 52° 112° (ESE) 02:15:53 29.354- 29.394
TISAT 1 26 Aug 02:00:55 02:05:01 45° 261° (W) 02:09:07 437.305
QB50P2 26 Aug 02:03:42 02:06:53 21° 297° (WNW) 02:10:02 145.880/145.840
DUCHIFAT 1 26 Aug 02:03:45 02:07:07 24° 296° (WNW) 02:10:28 145.980
Gurwin Techsat 1B 26 Aug 02:04:56 02:08:27 18° 89° (E) 02:11:56 435.225
POLYITAN 1 26 Aug 02:06:15 02:09:24 21° 297° (WNW) 02:12:31 437.675
SWISSCUBE 26 Aug 02:12:40 02:17:18 56° 71° (ENE) 02:21:58 437.505
NANOSAT C BR1 26 Aug 02:17:00 02:19:50 18° 299° (WNW) 02:22:38 145.865
BEESAT 26 Aug 02:29:55 02:34:40 74° 72° (ENE) 02:39:25 436.000
SO-50 26 Aug 02:46:38 02:50:37 25° 326° (NW) 02:54:34 436.795
Oscar 19 26 Aug 02:48:21 02:53:36 81° 104° (ESE) 02:58:49 437.125/150
MOZHAYETS 4 26 Aug 03:01:19 03:05:01 25° 64° (ENE) 03:08:43
BUGSAT 1 26 Aug 03:08:10 03:10:04 13° 302° (WNW) 03:11:57 437.445
KKS-1 26 Aug 03:09:23 03:13:01 25° 63° (ENE) 03:16:40 437.445
ITUPSAT 1 26 Aug 03:16:26 03:20:57 43° 261° (W) 03:25:31 437.325
JAS-2 26 Aug 03:34:13 03:38:41 20° 304° (NW) 03:43:29 435.910
Gurwin Techsat 1B 26 Aug 03:43:38 03:48:57 73° 288° (WNW) 03:54:15 435.225
STARS 26 Aug 03:50:07 03:54:01 31° 66° (ENE) 03:57:56 437.465
SWISSCUBE 26 Aug 03:52:03 03:55:27 19° 269° (W) 03:58:53 437.505
AO-7 26 Aug 03:56:46 04:03:53 30° 94° (E) 04:10:55 29.400- 29.500
ITAMSAT 1 26 Aug 03:58:24 04:03:29 52° 101° (E) 04:08:31 435.822/435.867
RS-15 26 Aug 04:05:08 04:16:45 62° 319° (NW) 04:28:59 29.354- 29.394
BEESAT 26 Aug 04:10:18 04:12:59 15° 271° (W) 04:15:40 436.000
CUBESAT XI-V 26 Aug 04:16:38 04:20:01 21° 62° (ENE) 04:23:26 437.345
Oscar 19 26 Aug 04:28:55 04:32:18 18° 303° (WNW) 04:35:41 437.125/150
SO-50 26 Aug 04:31:24 04:32:47 11° 350° (N) 04:34:09 436.795
MOZHAYETS 4 26 Aug 04:37:39 04:41:59 42° 262° (W) 04:46:20
PHONESAT 2.4 26 Aug 04:39:35 04:41:47 19° 172° (S) 04:43:59 2401.200-2431.200
KKS-1 26 Aug 04:45:08 04:49:23 42° 261° (W) 04:53:40 437.445
Cosmos 2491 26 Aug 04:56:25 05:04:35 39° 67° (ENE) 05:12:43 435.465 / 435.565
AO-85 26 Aug 05:06:16 05:08:19 12° 108° (ESE) 05:10:20 145.980
Gurwin Techsat 1B 26 Aug 05:25:33 05:28:01 13° 307° (NW) 05:30:28 435.225
STARS 26 Aug 05:26:22 05:30:20 31° 264° (W) 05:34:20 437.465
BRITE-PL 26 Aug 05:33:20 05:36:49 16° 86° (E) 05:40:17 437.365/2234.400
ITAMSAT 1 26 Aug 05:38:29 05:42:39 25° 299° (WNW) 05:46:50 435.822/435.867
AO-7 26 Aug 05:49:03 05:57:19 71° 294° (WNW) 06:05:32 29.400- 29.500
CUBESAT XI-V 26 Aug 05:52:32 05:57:03 54° 261° (W) 06:01:36 437.345
HORYU 2 26 Aug 05:54:58 05:59:10 40° 98° (E) 06:03:19 437.375
SO-50 26 Aug 06:13:30 06:15:24 12° 15° (NNE) 06:17:16 436.795
Cubesat XI-IV 26 Aug 06:14:29 06:17:26 15° 88° (E) 06:20:22 437.490
PHONESAT 2.4 26 Aug 06:15:25 06:17:35 18° 189° (S) 06:19:45 2401.200-2431.200
YUBILEINY 26 Aug 06:15:39 06:23:39 41° 85° (E) 06:31:40 435.215
RS-15 26 Aug 06:21:24 06:32:16 36° 351° (N) 06:43:25 29.354- 29.394
CUTE-I 26 Aug 06:26:20 06:30:04 19° 90° (E) 06:33:48 437.470
STRAND 1 26 Aug 06:30:25 06:34:47 29° 63° (ENE) 06:39:10 437.568
NOAA 15 26 Aug 06:32:53 06:37:24 27° 94° (E) 06:41:51 137.62
AO-85 26 Aug 06:42:49 06:48:05 73° 125° (SE) 06:53:02 145.980
NOAA 18 26 Aug 06:51:10 06:55:48 27° 94° (E) 07:00:24 137.9125
Cosmos 2491 26 Aug 06:53:15 07:01:47 56° 270° (W) 07:10:18 435.465 / 435.565
GOMX 1 26 Aug 06:55:33 07:00:37 37° 95° (E) 07:05:29 467.674
BRITE-PL 26 Aug 07:10:15 07:15:59 87° 284° (WNW) 07:21:39 437.365/2234.400
LilacSat-2 26 Aug 07:10:45 07:14:24 44° 99° (E) 07:18:00 437.200
DOVE 4 26 Aug 07:11:27 07:15:37 24° 91° (E) 07:19:35 437.250
